Weather History for KRIL - November, 2014

Change the Weather History Date:

Sunday, November 2, 2014

  Actual Average Record
Temperature  
Mean Temperature 50 °F 42 °F  
Max Temperature 60 °F 56 °F 74 °F (1978)
Min Temperature 40 °F 28 °F 5 °F (1951)
Degree Days  
Heating Degree Days 15 23  
Month to date heating degree days 23 46  
Since 1 July heating degree days 527 690  
Cooling Degree Days 0 0  
Month to date cooling degree days 0 0  
Year to date cooling degree days 555 541  
Moisture  
Dew Point 38 °F    
Average Humidity 63    
Maximum Humidity 96    
Minimum Humidity 30    
Precipitation  
Precipitation 0.09 in 0.05 in 0.42 in (1992)
Month to date precipitation 0.11 0.11  
Year to date precipitation 11.42 12.47  
Sea Level Pressure  
Sea Level Pressure 29.81 in    
Wind  
Wind Speed 8 mph (WSW)    
Max Wind Speed 35 mph    
Max Gust Speed 44 mph    
Visibility 10 miles    
Events Rain    
T = Trace of Precipitation, MM = Missing Value Source: NWS Daily Summary

Daily Weather History Graph

Daily Weather History Graph

Search for Another Location

Airport or City:

Trip Planner

Search our weather history database for the weather conditions in past years. The results will help you decide how hot, cold, wet, or windy it might be!

Date:

Astronomy

Nov. 02, 2014 Rise Set
Actual Time 6:40 AM MST 5:08 PM MST
Civil Twilight 6:12 AM MST 5:35 PM MST
Nautical Twilight 5:40 AM MST 6:07 PM MST
Astronomical Twilight 5:09 AM MST 6:39 PM MST
Moon 2:40 PM MST (11/2) 1:47 AM MST (11/2)
Length of Visible Light 11h 23m
Length of Day
10h 27m
Waxing Gibbous, 79% of the Moon is Illuminated
Nov 2
Waxing Gibbous
Nov 6
Full
Nov 14
Last Quarter
Nov 22
New
Nov 29
First Quarter

Hourly Weather History & Observations

Time (MST) Temp. Windchill Dew Point Humidity Pressure Visibility Wind Dir Wind Speed Gust Speed Precip Events Conditions
12:53 AM 60.1 °F - 30.0 °F 32% 29.68 in 10.0 mi WSW 12.7 mph - N/A   Clear
1:53 AM 57.9 °F - 28.9 °F 33% 29.69 in 10.0 mi Variable 6.9 mph - N/A   Clear
1:53 AM 57.0 °F - 26.1 °F 30% 29.69 in 10.0 mi West 5.8 mph - N/A   Partly Cloudy
2:53 AM 55.0 °F - 27.0 °F 34% 29.70 in 10.0 mi ENE 4.6 mph - N/A   Scattered Clouds
3:53 AM 50.0 °F - 30.9 °F 48% 29.71 in 10.0 mi ESE 4.6 mph - N/A   Scattered Clouds
4:53 AM 54.0 °F - 28.9 °F 38% 29.71 in 10.0 mi East 3.5 mph - N/A   Mostly Cloudy
5:53 AM 51.1 °F - 30.0 °F 44% 29.71 in 10.0 mi East 4.6 mph - N/A   Mostly Cloudy
6:51 AM 50.0 °F - 37.4 °F 62% 29.88 in 10.0 mi West 31.1 mph 41.4 mph 0.00 in Rain Light Rain
6:53 AM 50.0 °F - 37.9 °F 63% 29.75 in 10.0 mi West 25.3 mph 41.4 mph 0.00 in Rain Light Rain
7:00 AM 48.0 °F - 39.0 °F 71% 29.88 in 10.0 mi West 24.2 mph 34.5 mph 0.00 in Rain Light Rain
7:53 AM 46.9 °F - 39.0 °F 74% 29.78 in 10.0 mi NW 10.4 mph - 0.00 in   Mostly Cloudy
8:17 AM 46.0 °F 37.6 °F 39.0 °F 76% 29.93 in 10.0 mi West 24.2 mph 39.1 mph 0.00 in Rain Light Rain
8:53 AM 43.0 °F 34.2 °F 39.9 °F 89% 29.86 in 10.0 mi West 20.7 mph - 0.00 in Rain Light Rain
9:53 AM 44.1 °F 38.1 °F 39.9 °F 85% 29.85 in 10.0 mi West 11.5 mph - 0.01 in Rain Light Rain
10:53 AM 46.9 °F - 39.0 °F 74% 29.84 in 10.0 mi SSE 4.6 mph - 0.00 in   Overcast
11:53 AM 48.0 °F - 39.9 °F 74% 29.82 in 10.0 mi East 9.2 mph - 0.00 in   Overcast
12:53 PM 51.1 °F - 39.9 °F 66% 29.76 in 10.0 mi NE 11.5 mph - 0.00 in Rain Light Rain
1:53 PM 50.0 °F - 43.0 °F 77% 29.75 in 9.0 mi ENE 10.4 mph - 0.03 in Rain Light Rain
2:53 PM 51.1 °F - 39.9 °F 66% 29.76 in 10.0 mi East 11.5 mph - 0.00 in   Overcast
3:53 PM 48.9 °F - 42.1 °F 77% 29.79 in 10.0 mi WSW 11.5 mph - 0.00 in Rain Light Rain
4:03 PM 46.0 °F 40.6 °F 41.0 °F 83% 29.89 in 2.5 mi West 11.5 mph - 0.04 in Rain Rain
4:19 PM 46.0 °F 43.1 °F 43.0 °F 89% 29.88 in 8.0 mi WNW 5.8 mph - 0.05 in Rain Light Rain
4:53 PM 45.0 °F 41.8 °F 43.0 °F 93% 29.79 in 10.0 mi West 5.8 mph - 0.05 in   Overcast
5:53 PM 45.0 °F 43.5 °F 42.1 °F 90% 29.81 in 10.0 mi SSW 3.5 mph - N/A   Overcast
6:53 PM 44.1 °F 42.5 °F 42.1 °F 93% 29.82 in 10.0 mi West 3.5 mph - 0.00 in   Mostly Cloudy
7:03 PM 44.1 °F 40.8 °F 42.1 °F 93% 29.89 in 10.0 mi West 5.8 mph - N/A   Mostly Cloudy
7:12 PM 44.1 °F 41.5 °F 42.1 °F 93% 29.89 in 10.0 mi West 4.6 mph - N/A   Mostly Cloudy
7:21 PM 44.1 °F 42.5 °F 41.0 °F 89% 29.89 in 10.0 mi West 3.5 mph - N/A   Overcast
7:38 PM 43.0 °F - 41.0 °F 93% 29.89 in 10.0 mi Calm Calm - N/A   Mostly Cloudy
7:53 PM 43.0 °F 41.3 °F 41.0 °F 93% 29.83 in 10.0 mi SE 3.5 mph - N/A   Mostly Cloudy
8:53 PM 41.0 °F 39.0 °F 39.0 °F 93% 29.86 in 10.0 mi SSE 3.5 mph - 0.00 in Rain Light Rain
9:12 PM 41.0 °F 36.4 °F 39.0 °F 93% 29.90 in 10.0 mi ESE 6.9 mph - 0.00 in Rain Light Rain
9:53 PM 41.0 °F 37.1 °F 39.0 °F 93% 29.86 in 10.0 mi SE 5.8 mph - 0.00 in   Overcast
10:53 PM 41.0 °F 39.0 °F 39.0 °F 93% 29.84 in 10.0 mi SSW 3.5 mph - 0.00 in   Overcast